Location: Pedholt
(56.0260°N, 10.2097°E)
Time: 05:36:06
(UTC+00:00)

Tsikada Rocket - Pass Details

Date: 14 July 2020
Orbit: 959 x 1008 km, 82.9° (Epoch: 07 August)

Event Time Altitude Azimuth Distance (km) Brightness Sun altitude
Rises 01:27:51 0° 347° (NNW) 3,745 7.9 -8.1°
Reaches altitude 10° 01:30:24 10° 346° (NNW) 2,795 7.1 -7.9°
Maximum altitude 01:36:48 72° 264° (W) 1,064 4.1 -7.5°
Drops below altitude 10° 01:43:10 10° 181° (S) 2,781 5.9 -7.0°
Enters shadow 01:45:05 - 180° (S) 3,496 6.4 -6.9°
